When you browse on this site, cookies collect data to enhance your experience and personalize the content and advertising you see.
Visit our Privacy Policy to learn more. By continuing to use the site, you agree to this use of cookies and data.
  • In Schweiz
  • Länderverzeichnis
  • Für 7 Tage
  • Wassertemperatur
  • Wetterkarte
  • Widgets
  • user-avatar
    Anmelden

    Stündliche Wetter Newcastle

    Heute, 27 Mai, Mittwoch

    Zeit Temperatur Niederschläge Wind Luftdruck Luftfeuchtigkeit
    00:00 +12°C° 0 mm 2 m/S 764 mmHg 68%
    01:00 +10°C° 0 mm 2 m/S 763 mmHg 70%
    02:00 +9°C° 0 mm 2 m/S 763 mmHg 72%
    03:00 +9°C° 0 mm 1 m/S 763 mmHg 75%
    04:00 +10°C° 0 mm 1 m/S 763 mmHg 76%
    05:00 +10°C° 0 mm 1 m/S 763 mmHg 77%
    06:00 +11°C° 0 mm 1 m/S 763 mmHg 79%
    07:00 +13°C° 0 mm 1 m/S 763 mmHg 72%
    08:00 +15°C° 0 mm 2 m/S 764 mmHg 65%
    09:00 +16°C° 0 mm 2 m/S 764 mmHg 59%
    10:00 +17°C° 0 mm 2 m/S 764 mmHg 55%
    11:00 +18°C° 0 mm 2 m/S 764 mmHg 51%
    12:00 +19°C° 0 mm 2 m/S 763 mmHg 47%
    13:00 +21°C° 0 mm 1 m/S 763 mmHg 46%
    14:00 +21°C° 0 mm 1 m/S 763 mmHg 46%
    15:00 +22°C° 0 mm 1 m/S 763 mmHg 46%
    16:00 +21°C° 0 mm 1 m/S 763 mmHg 53%
    17:00 +20°C° 0 mm 2 m/S 763 mmHg 60%
    18:00 +19°C° 0 mm 2 m/S 763 mmHg 67%
    19:00 +17°C° 0 mm 2 m/S 763 mmHg 73%
    20:00 +14°C° 0 mm 3 m/S 764 mmHg 79%
    21:00 +12°C° 0 mm 3 m/S 764 mmHg 84%
    22:00 +11°C° 0 mm 3 m/S 764 mmHg 86%
    23:00 +11°C° 0 mm 3 m/S 764 mmHg 88%

    Morgen, 28 Mai, Donnerstag

    Zeit Temperatur Niederschläge Wind Luftdruck Luftfeuchtigkeit
    00:00 +10°C° 0 mm 3 m/S 764 mmHg 91%
    01:00 +10°C° 0 mm 2 m/S 763 mmHg 92%
    02:00 +9°C° 0 mm 2 m/S 763 mmHg 93%
    03:00 +9°C° 0 mm 2 m/S 763 mmHg 95%
    04:00 +10°C° 0 mm 2 m/S 763 mmHg 93%
    05:00 +12°C° 0 mm 2 m/S 763 mmHg 90%
    06:00 +12°C° 0 mm 2 m/S 763 mmHg 88%
    07:00 +14°C° 0 mm 2 m/S 763 mmHg 83%
    08:00 +16°C° 0 mm 3 m/S 763 mmHg 78%
    09:00 +17°C° 0 mm 3 m/S 763 mmHg 72%
    10:00 +18°C° 0 mm 3 m/S 762 mmHg 69%
    11:00 +19°C° 0 mm 3 m/S 762 mmHg 66%
    12:00 +20°C° 0 mm 3 m/S 762 mmHg 62%
    13:00 +20°C° 0 mm 3 m/S 761 mmHg 62%
    14:00 +21°C° 0 mm 2 m/S 761 mmHg 62%
    15:00 +21°C° 0 mm 2 m/S 760 mmHg 61%
    16:00 +21°C° 0 mm 3 m/S 760 mmHg 65%
    17:00 +20°C° 0 mm 3 m/S 760 mmHg 69%
    18:00 +20°C° 0 mm 3 m/S 760 mmHg 72%
    19:00 +18°C° 0 mm 3 m/S 760 mmHg 76%
    20:00 +16°C° 0 mm 2 m/S 760 mmHg 80%
    21:00 +14°C° 0 mm 2 m/S 760 mmHg 84%
    22:00 +13°C° 0 mm 2 m/S 759 mmHg 85%
    23:00 +13°C° 0 mm 2 m/S 759 mmHg 86%

    übermorgen, 29 Mai, Freitag

    Zeit Temperatur Niederschläge Wind Luftdruck Luftfeuchtigkeit
    00:00 +12°C° 0 mm 2 m/S 759 mmHg 88%
    01:00 +10°C° 0 mm 2 m/S 759 mmHg 85%
    02:00 +10°C° 0 mm 2 m/S 759 mmHg 83%
    03:00 +9°C° 0 mm 2 m/S 759 mmHg 80%
    04:00 +10°C° 0 mm 2 m/S 759 mmHg 77%
    05:00 +10°C° 0 mm 2 m/S 758 mmHg 73%
    06:00 +12°C° 0 mm 2 m/S 758 mmHg 70%
    07:00 +13°C° 0 mm 2 m/S 758 mmHg 66%
    08:00 +14°C° 0 mm 3 m/S 758 mmHg 63%
    09:00 +17°C° 0 mm 3 m/S 758 mmHg 59%
    10:00 +18°C° 0 mm 4 m/S 758 mmHg 59%
    11:00 +19°C° 0 mm 4 m/S 758 mmHg 60%
    12:00 +20°C° 0 mm 4 m/S 758 mmHg 60%
    13:00 +20°C° 0 mm 4 m/S 757 mmHg 60%
    14:00 +20°C° 0 mm 4 m/S 757 mmHg 61%
    15:00 +20°C° 0 mm 4 m/S 756 mmHg 62%
    16:00 +20°C° 0 mm 4 m/S 756 mmHg 65%
    17:00 +20°C° 0 mm 3 m/S 756 mmHg 68%
    18:00 +19°C° 0 mm 3 m/S 756 mmHg 72%
    19:00 +17°C° 0 mm 3 m/S 756 mmHg 77%
    20:00 +16°C° 0 mm 3 m/S 756 mmHg 83%
    21:00 +13°C° 0 mm 3 m/S 756 mmHg 88%
    22:00 +12°C° 0 mm 3 m/S 756 mmHg 89%
    23:00 +11°C° 0 mm 3 m/S 756 mmHg 90%

    30 Mai, Samstag

    Zeit Temperatur Niederschläge Wind Luftdruck Luftfeuchtigkeit
    00:00 +10°C° 0 mm 3 m/S 756 mmHg 91%
    01:00 +9°C° 0 mm 3 m/S 756 mmHg 90%
    02:00 +9°C° 0 mm 2 m/S 756 mmHg 88%
    03:00 +8°C° 0 mm 2 m/S 756 mmHg 87%
    04:00 +8°C° 0 mm 2 m/S 756 mmHg 83%
    05:00 +9°C° 0 mm 2 m/S 756 mmHg 79%
    06:00 +10°C° 0 mm 2 m/S 756 mmHg 74%
    07:00 +11°C° 0 mm 3 m/S 756 mmHg 69%
    08:00 +13°C° 0 mm 3 m/S 756 mmHg 64%
    09:00 +16°C° 0 mm 3 m/S 756 mmHg 59%
    10:00 +17°C° 0 mm 3 m/S 756 mmHg 57%
    11:00 +18°C° 0 mm 3 m/S 755 mmHg 56%
    12:00 +19°C° 0 mm 3 m/S 755 mmHg 54%
    13:00 +20°C° 0 mm 3 m/S 755 mmHg 55%
    14:00 +20°C° 0 mm 3 m/S 755 mmHg 55%
    15:00 +21°C° 0 mm 3 m/S 755 mmHg 55%
    16:00 +20°C° 0 mm 3 m/S 754 mmHg 60%
    17:00 +20°C° 0 mm 2 m/S 754 mmHg 65%
    18:00 +19°C° 0 mm 2 m/S 754 mmHg 70%
    19:00 +18°C° 0 mm 3 m/S 754 mmHg 76%
    20:00 +16°C° 0 mm 3 m/S 755 mmHg 82%
    21:00 +13°C° 0 mm 3 m/S 755 mmHg 88%
    22:00 +13°C° 0 mm 3 m/S 755 mmHg 88%
    23:00 +12°C° 0 mm 3 m/S 755 mmHg 87%

    31 Mai, Sonntag

    Zeit Temperatur Niederschläge Wind Luftdruck Luftfeuchtigkeit
    00:00 +12°C° 0 mm 3 m/S 755 mmHg 87%
    01:00 +11°C° 0 mm 3 m/S 755 mmHg 87%
    02:00 +11°C° 0 mm 3 m/S 755 mmHg 87%
    03:00 +12°C° 0 mm 2 m/S 755 mmHg 87%
    04:00 +12°C° 0 mm 2 m/S 755 mmHg 86%
    05:00 +12°C° 0 mm 2 m/S 755 mmHg 84%
    06:00 +13°C° 0 mm 2 m/S 755 mmHg 82%
    07:00 +13°C° 0 mm 3 m/S 755 mmHg 76%
    08:00 +16°C° 0 mm 3 m/S 755 mmHg 70%
    09:00 +17°C° 0 mm 3 m/S 755 mmHg 65%
    10:00 +18°C° 0 mm 3 m/S 755 mmHg 61%
    11:00 +19°C° 0 mm 3 m/S 755 mmHg 57%
    12:00 +20°C° 0 mm 3 m/S 754 mmHg 53%
    13:00 +20°C° 0 mm 3 m/S 754 mmHg 53%
    14:00 +20°C° 0 mm 3 m/S 754 mmHg 53%
    15:00 +21°C° 0 mm 2 m/S 754 mmHg 52%
    16:00 +20°C° 0 mm 2 m/S 754 mmHg 58%
    17:00 +20°C° 0 mm 2 m/S 753 mmHg 64%
    18:00 +19°C° 0 mm 2 m/S 753 mmHg 70%
    19:00 +17°C° 0 mm 3 m/S 753 mmHg 76%
    20:00 +16°C° 0 mm 3 m/S 753 mmHg 82%
    21:00 +13°C° 0 mm 4 m/S 753 mmHg 87%
    22:00 +13°C° 0 mm 3 m/S 753 mmHg 89%
    23:00 +12°C° 0 mm 3 m/S 753 mmHg 91%

    1 Juni, Montag

    Zeit Temperatur Niederschläge Wind Luftdruck Luftfeuchtigkeit
    00:00 +11°C° 0 mm 3 m/S 753 mmHg 92%
    01:00 +11°C° 0 mm 3 m/S 753 mmHg 91%
    02:00 +11°C° 0 mm 3 m/S 752 mmHg 89%
    03:00 +10°C° 0 mm 2 m/S 752 mmHg 88%
    04:00 +11°C° 0 mm 3 m/S 752 mmHg 86%
    05:00 +12°C° 0 mm 3 m/S 752 mmHg 84%
    06:00 +12°C° 0 mm 3 m/S 752 mmHg 82%
    07:00 +14°C° 0 mm 3 m/S 752 mmHg 76%
    08:00 +16°C° 0 mm 3 m/S 752 mmHg 70%
    09:00 +18°C° 0 mm 3 m/S 752 mmHg 64%
    10:00 +19°C° 0 mm 4 m/S 751 mmHg 62%
    11:00 +19°C° 0 mm 4 m/S 751 mmHg 59%
    12:00 +20°C° 0 mm 4 m/S 751 mmHg 56%
    13:00 +20°C° 0 mm 4 m/S 751 mmHg 56%
    14:00 +21°C° 0 mm 4 m/S 750 mmHg 56%
    15:00 +21°C° 0 mm 4 m/S 750 mmHg 56%
    16:00 +20°C° 0 mm 4 m/S 750 mmHg 61%
    17:00 +20°C° 0 mm 4 m/S 750 mmHg 67%
    18:00 +19°C° 0 mm 4 m/S 749 mmHg 72%
    19:00 +18°C° 0 mm 4 m/S 750 mmHg 77%
    20:00 +15°C° 0 mm 4 m/S 750 mmHg 82%
    21:00 +13°C° 0 mm 4 m/S 750 mmHg 86%
    22:00 +12°C° 0 mm 4 m/S 750 mmHg 85%
    23:00 +12°C° 0 mm 4 m/S 750 mmHg 84%
    Mehr zeigen